FW4118 Weather Reports


Display with metric or nautical units.
time (UTC)temp
F
wind
direction
speed
MPH
gust
MPH
rain 1hr
in
rain 24hr
in
rain mn
in
humidity
%
barometer
mb
20260503211809 58 302 9.0 18.0 0.00 0.00 0.00
20260503210808 57 295 5.0 13.0 0.00 0.00 0.00
20260503210308 57 291 7.0 14.0 0.00 0.00 0.00
20260503205808 57 291 7.0 15.0 0.00 0.00 0.00
20260503205309 58 295 7.0 14.0 0.00 0.00 0.00
20260503204808 58 302 7.0 16.0 0.00 0.00 0.00
20260503204308 59 289 7.0 15.0 0.00 0.00 0.00
20260503203308 59 307 7.0 14.0 0.00 0.00 0.00
20260503202808 58 307 8.0 14.0 0.00 0.00 0.00
20260503201809 60 305 9.0 13.0 0.00 0.00 0.00
20260503200809 60 299 12.0 16.0 0.00 0.00 0.00
20260503200309 61 306 9.0 22.0 0.00 0.00 0.00
20260503195809 59 311 10.0 21.0 0.00 0.01 0.00
20260503195308 59 309 10.0 15.0 0.00 0.01 0.00
20260503194808 61 311 10.0 16.0 0.00 0.01 0.00
20260503194308 60 307 9.0 14.0 0.00 0.01 0.00
20260503193808 62 299 8.0 17.0 0.00 0.01 0.00
20260503192808 59 294 14.0 24.0 0.00 0.01 0.00
20260503192308 58 301 12.0 21.0 0.00 0.01 0.00
20260503191808 59 318 13.0 21.0 0.00 0.01 0.00
20260503191308 59 290 9.0 16.0 0.00 0.01 0.00
20260503190808 59 271 8.0 14.0 0.00 0.01 0.00
20260503190308 58 296 6.0 10.0 0.00 0.01 0.00
20260503185808 58 288 10.0 15.0 0.00 0.01 0.00
20260503183309 57 307 8.0 14.0 0.00 0.01 0.00
20260503182308 56 320 7.0 16.0 0.00 0.01 0.00
20260503181808 55 314 9.0 15.0 0.00 0.01 0.00
20260503181308 56 306 13.0 18.0 0.00 0.01 0.00
20260503180308 59 291 9.0 17.0 0.00 0.01 0.00
20260503175808 57 306 9.0 16.0 0.00 0.01 0.00
20260503174808 57 324 10.0 20.0 0.00 0.01 0.00
20260503174308 55 313 8.0 21.0 0.00 0.01 0.00
20260503173308 57 318 9.0 22.0 0.00 0.01 0.00
20260503172808 56 310 9.0 16.0 0.00 0.01 0.00
20260503172308 56 314 7.0 16.0 0.00 0.01 0.00
20260503171808 55 300 14.0 21.0 0.00 0.01 0.00
20260503171308 57 275 10.0 17.0 0.00 0.01 0.00
20260503170808 55 314 10.0 17.0 0.00 0.01 0.00
20260503150807 50 308 9.0 18.0 0.00 0.01 0.00
20260503140308 49 301 11.0 16.0 0.00 0.01 0.00
20260503131309 48 293 7.0 16.0 0.00 0.01 0.00
20260503130809 48 278 3.0 9.0 0.00 0.01 0.00
20260503130309 48 244 3.0 8.0 0.00 0.01 0.00
20260503110309 37 307 2.0 6.0 0.00 0.01 0.00
20260503090308 37 317 1.0 7.0 0.00 0.01 0.00
20260503080809 34 356 0.0 0.0 0.00 0.01 0.00
20260503080308 34 356 0.0 0.0 0.00 0.01 0.00
20260503072808 35 356 0.0 0.0 0.00 0.01 0.00
20260503072308 35 356 0.0 0.0 0.00 0.01 0.00
20260503071808 36 356 0.0 0.0 0.00 0.01 0.00
20260503071309 36 356 0.0 3.0 0.00 0.01 0.00
20260503070308 36 319 0.0 0.0 0.00 0.01 0.00
20260503060308 35 301 0.0 1.0 0.00 0.01 0.00
20260503054308 38 318 0.0 7.0 0.00 0.01 0.00
20260503053808 38 316 2.0 7.0 0.00 0.01 0.00
20260503053309 39 312 1.0 5.0 0.00 0.01 0.00
20260503052809 39 311 0.0 2.0 0.00 0.01 0.00
20260503051308 40 294 2.0 7.0 0.00 0.01 0.00
20260503050309 41 343 1.0 6.0 0.00 0.01 0.00
20260503045808 41 308 3.0 7.0 0.00 0.01 0.00
20260503045308 40 318 2.0 8.0 0.00 0.02 0.00
20260503044809 41 294 0.0 2.0 0.00 0.02 0.00
20260503044309 41 291 1.0 6.0 0.00 0.04 0.00
20260503043308 40 313 0.0 0.0 0.00 0.07 0.00
20260503042308 40 288 0.0 0.0 0.00 0.11 0.00
20260503041309 41 288 0.0 0.0 0.00 0.12 0.00
20260503040808 41 288 0.0 0.0 0.00 0.12 0.00
20260503040308 41 288 0.0 0.0 0.00 0.12 0.00
20260503035808 41 288 0.0 0.0 0.00 0.12 0.12
20260503035308 41 288 0.0 0.0 0.00 0.12 0.12
20260503034808 42 288 0.0 3.0 0.00 0.12 0.12
20260503034308 42 287 0.0 5.0 0.00 0.12 0.12
20260503033809 42 287 0.0 3.0 0.00 0.12 0.12
20260503032808 42 295 1.0 5.0 0.00 0.12 0.12
20260503032308 42 301 4.0 7.0 0.00 0.12 0.12
20260503031309 42 303 2.0 6.0 0.00 0.12 0.12
20260503030809 42 335 0.0 5.0 0.00 0.13 0.12
20260503030309 42 306 0.0 0.0 0.00 0.13 0.12
20260503025808 42 306 0.0 0.0 0.00 0.13 0.12
20260503025308 42 306 1.0 6.0 0.00 0.14 0.12
20260503024808 42 293 0.0 3.0 0.00 0.15 0.12
20260503024308 43 292 0.0 0.0 0.00 0.15 0.12
20260503023809 43 289 3.0 8.0 0.00 0.15 0.12
20260503022808 42 314 1.0 6.0 0.00 0.15 0.12
20260503021809 42 313 0.0 0.0 0.00 0.15 0.12
20260503021308 43 313 2.0 6.0 0.00 0.15 0.12
20260503020309 42 278 0.0 5.0 0.00 0.15 0.12
20260503015808 42 291 0.0 5.0 0.00 0.15 0.12
20260503015308 42 315 0.0 2.0 0.00 0.15 0.12
20260503014808 42 246 0.0 1.0 0.00 0.15 0.12
20260503014308 42 249 1.0 3.0 0.00 0.15 0.12
20260503013808 42 246 1.0 5.0 0.00 0.15 0.12
20260503013309 42 250 3.0 7.0 0.00 0.15 0.12
20260503012808 42 270 2.0 6.0 0.00 0.15 0.12
20260503012308 42 254 1.0 7.0 0.00 0.15 0.12
20260503011808 42 217 0.0 0.0 0.00 0.15 0.12
20260503010808 42 217 0.0 0.0 0.00 0.15 0.12
20260503010309 42 217 0.0 0.0 0.00 0.16 0.12
20260503005307 42 322 0.0 0.0 0.00 0.16 0.12
20260503004808 42 322 0.0 3.0 0.00 0.16 0.12
20260503004309 43 275 0.0 0.0 0.00 0.16 0.12
20260503003808 43 275 0.0 2.0 0.00 0.17 0.12
20260503003308 43 307 2.0 5.0 0.00 0.17 0.12
20260503002808 43 232 0.0 0.0 0.00 0.17 0.12
20260503000808 43 250 2.0 6.0 0.00 0.18 0.12
20260503000308 43 232 2.0 5.0 0.00 0.18 0.12
20260502235808 43 248 1.0 2.0 0.00 0.19 0.12
20260502235309 43 270 0.0 3.0 0.00 0.19 0.12
20260502234308 43 169 0.0 3.0 0.00 0.19 0.12
20260502233808 43 253 1.0 3.0 0.00 0.19 0.12
20260502233308 44 237 2.0 5.0 0.00 0.19 0.12
20260502232808 44 256 2.0 6.0 0.00 0.19 0.12
20260502232308 44 277 2.0 6.0 0.00 0.19 0.12
20260502231308 44 253 0.0 0.0 0.00 0.19 0.12
20260502230808 44 253 0.0 0.0 0.00 0.19 0.12
20260502230308 45 253 0.0 0.0 0.00 0.19 0.12
20260502225808 45 253 0.0 0.0 0.00 0.19 0.12
20260502225308 45 253 0.0 1.0 0.00 0.19 0.12
20260502224808 45 262 1.0 3.0 0.00 0.19 0.12
20260502224308 46 318 2.0 6.0 0.00 0.19 0.12
20260502223808 46 292 2.0 6.0 0.00 0.19 0.12
20260502223308 46 302 3.0 6.0 0.00 0.19 0.12
20260502222808 46 305 3.0 6.0 0.00 0.19 0.12
20260502222308 45 304 2.0 6.0 0.00 0.19 0.12
20260502221808 45 297 4.0 10.0 0.00 0.19 0.12
20260502221308 45 302 3.0 9.0 0.00 0.19 0.12
20260502220308 46 292 3.0 7.0 0.00 0.19 0.12
20260502215807 46 282 3.0 7.0 0.00 0.19 0.12
20260502215308 46 294 6.0 9.0 0.00 0.19 0.12
20260502214308 47 328 0.0 0.0 0.00 0.19 0.12
20260502213807 47 328 0.0 3.0 0.00 0.19 0.12
20260502213308 47 279 3.0 7.0 0.00 0.20 0.12
20260502212807 46 311 5.0 7.0 0.00 0.20 0.12
20260502212307 46 290 4.0 8.0 0.00 0.20 0.12